Weather in Kirovo

Russia / Oryol Oblast     52°40′03″N   35°26′05″E
temp.,
°C
wind,
m/s
gust,
m/s
humid.,
%
clouds,
%
prec.,
mm/h
press.,
hPa
HPBL,
m
1 july, fri
fri100:00+15nnw33801 0.0 101822
03:00+13n34764 0.0 101862
06:00+14n36800 0.0 1018134
09:00+19nnw586429 0.0 1017470
12:00+23n69525 0.0 10172289
15:00+22ne695815 0.4 10171785
18:00+19ene69630 0.0 1018911
21:00+13ne37750 0.0 1021109
2 july, sat
sat200:00+10ene48770 0.0 1022139
03:00+9nne22790 0.0 102310
06:00+10n36800 0.0 1024145
09:00+16nne58620 0.0 1024616
12:00+20nne56530 0.0 10231304
15:00+21nne45480 0.0 10221421
18:00+22nne25555 0.0 10211271
21:00+15n11785 0.0 102111
3 july, sun
sun300:00+14wnw33764 0.0 102124
03:00+13nw46795 0.0 102179
06:00+13nw38845 0.0 1020163
09:00+20nw5770100 0.0 1020404
12:00+24nw6857100 0.0 1018863
15:00+26nnw675292 0.0 10171581
18:00+25nnw476497 0.0 1017366
21:00+20wnw35865 0.6 101767
4 july, mon
mon400:00+18nw478981 0.0 1017113
03:00+17nw349467 0.9 101861
06:00+17nw34935 0.0 1018109
09:00+23n33750 0.0 1018427
12:00+26nne33595 0.0 10181191
15:00+27nne23515 0.0 10171754
18:00+22n678199 0.8 1017218
21:00+19w338794 2.0 101841
5 july, tue
tue500:00+18nnw2289100 0.9 101814
03:00+18sse228912 1.8 101824
06:00+18ssw239113 0.1 101972
09:00+23ssw227697 0.1 1018358
12:00+25wsw336794 2.9 1018707
15:00+27wsw23535 3.0 10171420
18:00+27ssw346024 0.0 1016691
21:00+23sw357086 0.0 101692